FW5697 Weather Reports


Display with metric or nautical units.
time (UTC)temp
F
wind
direction
speed
MPH
gust
MPH
rain 1hr
in
rain 24hr
in
rain mn
in
humidity
%
barometer
mb
20260506230029 80 175 2.0 9.0 0.00 0.00 0.00 67 1011.9
20260506224528 80 201 3.0 10.0 0.00 0.00 0.00 67 1012.3
20260506223051 81 188 3.0 8.0 0.00 0.00 0.00 65 1012.3
20260506221530 82 280 2.0 7.0 0.00 0.00 0.00 65 1011.8
20260506220031 81 136 2.0 6.0 0.00 0.00 0.00 66 1011.9
20260506214527 82 207 1.0 10.0 0.00 0.00 0.00 64 1012.1
20260506213027 83 172 1.0 8.0 0.00 0.00 0.00 64 1011.9
20260506211531 83 189 3.0 9.0 0.00 0.00 0.00 61 1012.0
20260506210035 83 219 3.0 6.0 0.00 0.00 0.00 62 1012.2
20260506204534 82 188 3.0 7.0 0.00 0.00 0.00 62 1012.6
20260506203028 82 211 2.0 6.0 0.00 0.00 0.00 62 1012.9
20260506201532 82 194 2.0 8.0 0.00 0.00 0.00 63 1012.9
20260506200038 82 164 3.0 8.0 0.00 0.00 0.00 60 1013.2
20260506194528 82 244 4.0 11.0 0.00 0.00 0.00 59 1013.5
20260506193030 82 240 3.0 9.0 0.00 0.00 0.00 60 1013.7
20260506191527 82 185 3.0 10.0 0.00 0.00 0.00 58 1014.2
20260506190028 82 185 3.0 7.0 0.00 0.00 0.00 61 1014.1
20260506184526 82 156 2.0 9.0 0.00 0.00 0.00 61 1014.5
20260506183033 82 191 3.0 11.0 0.00 0.00 0.00 59 1014.4
20260506181531 81 184 2.0 8.0 0.00 0.00 0.00 62 1014.5
20260506180030 81 217 3.0 9.0 0.00 0.00 0.00 60 1014.5
20260506174527 81 0 2.0 7.0 0.00 0.00 0.00 58 1014.4
20260506173038 80 153 3.0 9.0 0.00 0.00 0.00 56 1014.6
20260506171530 78 198 2.0 6.0 0.00 0.00 0.00 63 1014.7
20260506170027 77 219 2.0 9.0 0.00 0.00 0.00 63 1015.2
20260506164530 77 138 2.0 9.0 0.00 0.00 0.00 65 1015.1
20260506163030 76 239 3.0 8.0 0.00 0.00 0.00 66 1015.4
20260506161531 74 183 2.0 7.0 0.00 0.00 0.00 68 1015.8
20260506160029 73 0 2.0 8.0 0.00 0.00 0.00 70 1015.9
20260506154530 73 248 2.0 7.0 0.00 0.00 0.00 70 1016.0
20260506153029 73 246 3.0 8.0 0.00 0.00 0.00 69 1016.2
20260506151528 73 113 3.0 9.0 0.00 0.00 0.00 69 1015.8
20260506150030 72 190 1.0 6.0 0.00 0.00 0.00 73 1015.8
20260506144531 72 154 3.0 10.0 0.00 0.00 0.00 75 1015.6
20260506143034 71 155 2.0 7.0 0.00 0.00 0.00 78 1015.5
20260506141528 70 198 2.0 8.0 0.00 0.00 0.00 80 1015.2
20260506140028 70 264 3.0 6.0 0.00 0.00 0.00 82 1015.1
20260506134528 69 194 3.0 9.0 0.00 0.00 0.00 82 1014.9
20260506133031 68 249 2.0 8.0 0.00 0.00 0.00 83 1014.9
20260506131533 67 187 1.0 5.0 0.00 0.00 0.00 85 1014.9
20260506130030 66 0 1.0 4.0 0.00 0.00 0.00 85 1015.0
20260506124534 66 172 1.0 5.0 0.00 0.00 0.00 86 1014.8
20260506123037 65 234 1.0 5.0 0.00 0.00 0.00 86 1014.8
20260506121529 64 205 1.0 4.0 0.00 0.00 0.00 86 1014.9
20260506120036 63 0 0.0 2.0 0.00 0.00 0.00 86 1014.7
20260506114530 63 0 0.0 2.0 0.00 0.00 0.00 86 1014.6
20260506113028 63 211 0.0 2.0 0.00 0.00 0.00 86 1014.7
20260506111529 63 0 0.0 2.0 0.00 0.00 0.00 85 1014.4
20260506110028 63 203 0.0 2.0 0.00 0.00 0.00 85 1014.2
20260506104529 63 188 0.0 2.0 0.00 0.00 0.00 85 1013.8
20260506103032 63 221 0.0 2.0 0.00 0.00 0.00 84 1013.4
20260506101530 63 0 1.0 2.0 0.00 0.00 0.00 84 1013.2
20260506100029 63 0 0.0 3.0 0.00 0.00 0.00 83 1013.5
20260506094535 63 0 0.0 3.0 0.00 0.00 0.00 82 1013.3
20260506093041 62 214 1.0 3.0 0.00 0.00 0.00 82 1013.1
20260506091526 62 0 1.0 2.0 0.00 0.00 0.00 81 1013.1
20260506090028 61 211 1.0 2.0 0.00 0.00 0.00 81 1013.3
20260506084532 60 0 0.0 2.0 0.00 0.00 0.00 81 1013.3
20260506083031 60 0 0.0 1.0 0.00 0.00 0.00 80 1013.4
20260506081527 60 0 0.0 1.0 0.00 0.00 0.00 79 1013.7
20260506073030 58 0 0.0 0.0 0.00 0.00 0.00 83 1013.9
20260506071530 59 0 0.0 0.0 0.00 0.00 0.00 82 1013.8
20260506061534 59 0 0.0 0.0 0.00 0.00 0.00 80 1013.9
20260506044536 61 0 0.0 0.0 0.00 0.00 0.00 78 1013.8
20260506043030 61 0 0.0 0.0 0.00 0.00 0.00 77 1013.9
20260506041530 61 0 0.0 0.0 0.00 0.00 0.00 75 1014.0
20260506040027 61 0 0.0 0.0 0.00 0.00 0.00 75 1014.3
20260506034528 62 0 0.0 0.0 0.00 0.00 0.00 74 1014.2
20260506033028 62 0 0.0 1.0 0.00 0.00 0.00 72 1014.2
20260506031534 62 0 0.0 0.0 0.00 0.00 0.00 71 1013.8
20260506030028 63 0 0.0 1.0 0.00 0.00 0.00 70 1014.0
20260506024534 64 0 0.0 0.0 0.00 0.00 0.00 69 1014.1
20260506023030 64 0 0.0 1.0 0.00 0.00 0.00 69 1014.1
20260506021526 65 0 0.0 0.0 0.00 0.00 0.00 65 1013.9
20260506020028 66 0 0.0 1.0 0.00 0.00 0.00 64 1014.0
20260506014530 67 0 0.0 0.0 0.00 0.00 0.00 63 1014.1
20260506013028 69 0 0.0 0.0 0.00 0.00 0.00 61 1013.8
20260506011530 69 0 0.0 0.0 0.00 0.00 0.00 57 1013.6
20260506010032 69 0 0.0 1.0 0.00 0.00 0.00 57 1013.7
20260506004537 70 0 0.0 0.0 0.00 0.00 0.00 57 1013.6
20260506003030 72 0 0.0 1.0 0.00 0.00 0.00 55 1013.6
20260506001528 74 0 0.0 0.0 0.00 0.00 0.00 48 1013.5
20260506000027 75 0 0.0 2.0 0.00 0.00 0.00 46 1013.6
20260505234600 76 0 0.0 3.0 0.00 0.00 0.00 44 1013.5
20260505233026 77 182 0.0 4.0 0.00 0.00 0.00 42 1013.3
20260505231529 78 211 1.0 5.0 0.00 0.00 0.00 39 1013.2